Regional Weather Roundup
Issued by NWS

Home | Current Version | Previous Version | Text Only | Print | Product List | Glossary Off
Versions: 1 2 3 4 5 6 7 8 9 10 11 12 13 14 15 16 17 18 19 20 21 22 23 24 25 26 27 28 29 30 31 32 33 34 35 36 37 38 39 40 41 42 43 44 45 46 47 48 49 50

000
ASUS44 KMEG 271800
RWRTN
TENNESSEE HOURLY STATE WEATHER ROUNDUP
NATIONAL WEATHER SERVICE MEMPHIS TN
100 PM CDT THU AUG 27 2015

TNZ002-004-019-021-049-052-054-088>092-271900-
WEST TENNESSEE

CITY           SKY/WX    TMP DP  RH WIND       PRES   REMARKS
MEMPHIS INTL   MOSUNNY   81  54  39 CALM      30.11S
NWS MEMPHIS      N/A     79 N/A N/A MISG        N/A
JACKSON        MOSUNNY   79  59  50 E9        30.10S
DYERSBURG      CLOUDY   N/A N/A N/A MISG        N/A
$$

TNZ008-025-027-028-033-062-065-066-271900-
NORTH MIDDLE TENNESSEE

CITY           SKY/WX    TMP DP  RH WIND       PRES   REMARKS
NASHVILLE      MOSUNNY   81  51  35 E12G25    30.10F
CLARKSVILLE    MOSUNNY   80  54  40 E8        30.10F
CROSSVILLE     PTSUNNY   77  58  51 CALM      30.15F
$$

TNZ061-075-076-078-094-096-097-271900-
SOUTH MIDDLE TENNESSEE

CITY           SKY/WX    TMP DP  RH WIND       PRES   REMARKS
SHELBYVILLE    SUNNY     79  61  53 NE8       30.11F
$$

TNZ017-018-042-046-047-271900-
NORTHEAST TENNESSEE

CITY           SKY/WX    TMP DP  RH WIND       PRES   REMARKS
TRI CITIES     MOSUNNY   80  58  46 VRB3      30.11F
$$

TNZ012-013-036-069-073-074-271900-
CENTRAL EAST TENNESSEE

CITY           SKY/WX    TMP DP  RH WIND       PRES   REMARKS
KNOXVILLE      MOSUNNY   81  59  47 E7        30.09F
OAK RIDGE      SUNNY     80  58  46 E6        30.12F
GATLINBURG     CLEAR     81  57  44 NE5       30.08F
$$

TNZ083-085-099-271900-
SOUTHEAST TENNESSEE

CITY           SKY/WX    TMP DP  RH WIND       PRES   REMARKS
CHATTANOOGA    MOSUNNY   80  63  55 VRB7      30.09S
$$

SKY/WX REPORTED AS FAIR MEANS FEW OR NO CLOUDS BELOW
12 THOUSAND FEET.




USA.gov is the U.S. government's official web portal to all federal, state and local government web resources and services.